DW5678 Kavala GR current weather conditions

sailwx.info

Wind from 011

Air temperature 25.6° C
Dewpoint 15.8° C

Last reported at 2016-Jul-24 03:30 UTC.
Time now 2016-Jul-24 04:55 UTC

Location: N 40°56' E 024°24'.
View on Google Maps.

See reports from other nearby stations

  
Tides and Currents Weather Stations Pressure Air Temp Water Temp Dewpoint Dewpoint Depression Visibility Wind Speed Wind Dir Waves Ship Positions
date/time (UTC)wind fromknots sea level pressurealtimeterstation pressurevisibilityair tempwater tempwave heightnotes
2016-Jul-24 03:30 011 25.6
2016-Jul-24 03:00 011 25.6
2016-Jul-24 02:45 015 25.6
2016-Jul-24 02:15 025 25.6
2016-Jul-24 02:00 025 25.6
2016-Jul-24 01:15 288 25.6
2016-Jul-24 00:30 290 25.6
2016-Jul-24 00:00 224 26.1
2016-Jul-23 23:45 045 26.1
2016-Jul-23 23:15 037 2 gusting 7 26.1
2016-Jul-23 22:30 096 26.7
2016-Jul-23 22:15 096 26.7
2016-Jul-23 22:00 096 26.7
2016-Jul-23 21:45 096 26.7
2016-Jul-23 21:30 096 26.7
2016-Jul-23 21:00 096 26.7
2016-Jul-23 20:45 096 26.7
2016-Jul-23 20:15 096 27.2
2016-Jul-23 20:00 096 27.2
2016-Jul-23 19:45 096 27.8
2016-Jul-23 19:30 096 27.8
2016-Jul-23 18:30 096 28.3
2016-Jul-23 18:00 098 28.3
2016-Jul-23 17:45 098 28.3
2016-Jul-23 17:30 098 28.3
2016-Jul-23 17:15 100 0 gusting 1 28.3
2016-Jul-23 17:00 144 28.3
2016-Jul-23 16:45 144 0 gusting 1 28.9
2016-Jul-23 16:15 144 0 gusting 1 28.9
2016-Jul-23 16:00 154 0 gusting 2 29.4
2016-Jul-23 15:30 188 29.4
2016-Jul-23 15:15 213 0 gusting 2 29.4
2016-Jul-23 15:00 196 28.9
2016-Jul-23 14:45 201 0 gusting 4 28.9
2016-Jul-23 14:30 202 29.4
2016-Jul-23 14:15 203 0 gusting 2 28.9
2016-Jul-23 13:45 203 1 gusting 4 29.4
2016-Jul-23 13:30 188 1 gusting 4 29.4
2016-Jul-23 13:15 161 1 gusting 4 28.9
2016-Jul-23 13:00 145 0 gusting 5 28.9
2016-Jul-23 12:45 190 1 gusting 5 29.4
2016-Jul-23 12:30 200 1 gusting 5 29.4
2016-Jul-23 12:15 190 0 gusting 4 29.4
2016-Jul-23 12:00 129 0 gusting 4 29.4
2016-Jul-23 11:30 109 2 gusting 6 28.3
2016-Jul-23 11:15 165 0 gusting 5 28.3
2016-Jul-23 10:45 147 0 gusting 5 29.4
2016-Jul-23 10:30 150 0 gusting 5 28.9
2016-Jul-23 10:15 199 1 gusting 5 28.9
2016-Jul-23 09:45 128 1 gusting 4 29.4
2016-Jul-23 09:15 144 0 gusting 4 28.9
2016-Jul-23 09:00 153 1 gusting 4 28.9
2016-Jul-23 08:45 151 1 gusting 4 28.3
2016-Jul-23 08:30 150 1 gusting 5 27.8
2016-Jul-23 08:15 178 0 gusting 4 27.8
2016-Jul-23 07:45 160 0 gusting 4 26.7
2016-Jul-23 07:30 158 1 gusting 4 26.1
2016-Jul-23 07:15 238 0 gusting 2 26.7
2016-Jul-23 07:00 132 0 gusting 4 26.1
2016-Jul-23 06:30 113 0 gusting 2 25.6
2016-Jul-23 06:15 128 0 gusting 4 25.6
2016-Jul-23 06:00 126 1 gusting 2 25.0
2016-Jul-23 05:45 123 1 gusting 2 24.4
2016-Jul-23 05:00 218 24.4
2016-Jul-23 04:45 219 23.9
2016-Jul-23 04:30 220 23.9
2016-Jul-23 03:30 220 23.9
2016-Jul-23 03:15 220 23.9
2016-Jul-23 02:45 220 23.9
2016-Jul-23 02:30 220 23.9
2016-Jul-23 02:15 220 23.9
2016-Jul-23 02:00 220 23.9
2016-Jul-23 01:45 220 24.4
2016-Jul-23 01:30 220 0 gusting 1 24.4
2016-Jul-23 00:45 220 24.4
2016-Jul-23 00:30 220 24.4
2016-Jul-23 00:00 220 24.4
2016-Jul-22 23:45 220 24.4
2016-Jul-22 23:30 220 24.4
2016-Jul-22 23:15 220 24.4
2016-Jul-22 23:00 220 24.4
2016-Jul-22 22:45 220 24.4
2016-Jul-22 22:30 220 25.0
2016-Jul-22 22:15 220 25.0
2016-Jul-22 21:30 220 25.0
2016-Jul-22 21:15 220 25.0
2016-Jul-22 20:45 220 25.0
2016-Jul-22 20:30 220 25.6
2016-Jul-22 20:15 220 25.6
2016-Jul-22 20:00 220 25.6
2016-Jul-22 19:30 220 25.6
2016-Jul-22 19:15 220 25.6
2016-Jul-22 18:45 220 26.1
2016-Jul-22 18:15 220 26.1
2016-Jul-22 18:00 220 26.1
2016-Jul-22 17:45 220 26.1
2016-Jul-22 17:15 223 26.1
2016-Jul-22 17:00 207 0 gusting 4 26.1
2016-Jul-22 16:45 214 1 gusting 5 26.1
2016-Jul-22 16:30 232 0 gusting 5 26.7
2016-Jul-22 16:15 231 2 gusting 5 26.7
2016-Jul-22 16:00 180 0 gusting 4 27.2
2016-Jul-22 15:30 248 1 gusting 6 27.2
2016-Jul-22 15:15 137 1 gusting 4 27.2
2016-Jul-22 14:45 139 0 gusting 5 27.2
2016-Jul-22 14:30 221 0 gusting 4 27.8
2016-Jul-22 14:15 240 1 gusting 6 27.2
2016-Jul-22 14:00 247 1 gusting 6 27.8
2016-Jul-22 13:45 162 0 gusting 5 27.8
2016-Jul-22 13:30 224 1 gusting 5 27.8
2016-Jul-22 13:15 174 1 gusting 5 27.2
2016-Jul-22 13:00 231 0 gusting 5 27.8
2016-Jul-22 12:45 179 2 gusting 5 27.2
2016-Jul-22 12:30 224 0 gusting 6 28.3
2016-Jul-22 12:15 119 2 gusting 6 28.3
2016-Jul-22 12:00 177 1 gusting 6 27.8
2016-Jul-22 11:45 142 1 gusting 6 27.2
2016-Jul-22 11:30 239 1 gusting 6 27.2
2016-Jul-22 10:45 128 1 gusting 6 27.8
2016-Jul-22 10:30 166 0 gusting 6 28.3
2016-Jul-22 10:15 250 1 gusting 5 27.2
2016-Jul-22 10:00 251 0 gusting 6 27.8
2016-Jul-22 09:45 176 0 gusting 5 27.2
2016-Jul-22 09:30 115 2 gusting 6 26.7
2016-Jul-22 09:15 159 0 gusting 5 27.8
2016-Jul-22 08:30 128 1 gusting 6 26.1
2016-Jul-22 08:00 088 1 gusting 5 25.6
2016-Jul-22 07:15 219 1 gusting 5 25.6
2016-Jul-22 07:00 206 1 gusting 4 25.6
2016-Jul-22 06:45 159 0 gusting 4 26.1
2016-Jul-22 06:30 136 0 gusting 2 25.6
2016-Jul-22 06:15 160 0 gusting 2 25.6
2016-Jul-22 06:00 221 0 gusting 4 25.0
2016-Jul-22 05:45 227 25.0
2016-Jul-22 05:30 213 0 gusting 2 25.0
2016-Jul-22 04:45 286 23.9
2016-Jul-22 04:30 298 23.3
2016-Jul-22 04:15 298 23.3
2016-Jul-22 04:00 298 23.3